map of BTH home
Great Circle Mapper logo
BTH - Airport
Location
City:  Batam, Batu Besar, Indonesia
Name:Hang Nadim
ICAO / IATA:WIDD / BTH

Details
Type:Airport (Aerodrome, Airfield)
Use:Public/Civil
Latitude:107'16"N (1.121028)
Longitude:10407'08"E (104.118753)
Datum:WGS 1984
Elevation:126 ft (38 m)
Runways:1
Longest:13256 × 148 ft (4040 × 45 m), paved

Time
Time Zone:UTC+7
Local Time:

Weather
METAR:WIDD 252300Z 17003KT 8000 FEW020 25/24 Q1011 NOSIG
TAF:WIDD 251100Z 2512/2612 11008KT 9000 SCT015
BECMG 2516/2518 00000KT 7000 FEW014
TEMPO 2522/2601 5000 -TSRA FEW016CB SCT014

Related Locations
Nearby:
Farthest:TPN: 12426 mi / 19998 km
Tiputini, Oreliana, EC

Find:

   beyond  
but within

Other Information
Maps:
NOTAMs:
Links:
Sources:

  
flag of Indonesia   

Sectional Chart

Flight Planning
at skyvector.com

Satellite Image

Google Maps Satellite View

 

Copyright © 2004-2014 Karl L. Swartz. All rights reserved.
The Great Circle Mapper name and logo are trademarks of the Great Circle Mapper.
All other trademarks mentioned herein belong to their respective owners.
Please see credits for attibutions and further copyright information.

  Follow gcmap on Facebook Follow gcmap on Twitter

hCard Microformat

Geo Microformat